sat.trackr.live / text

‹ back to catalog

STARLINK-30883

NORAD 58252 · 2023-171Y

PAYLOAD ACTIVE UNKNOWN

§ Identity

Operator
Country
US
Launch date
2023-11-08
Launch site
AFETR
Launch vehicle
Mass (kg)
RCS (m²)

Purposes: comms

External: N2YO · Heavens-Above · Gunter

§ Orbital elements

Epoch: 2026-09-20T01:32:13.265952Z

Period
94.27 min
Inclination
43.0043°
Eccentricity
0.0001401
Mean motion
15.27577291 rev/d
Perigee alt
482.1 km
Apogee alt
484.0 km
Semi-major
6,861.2 km
B*
4.8258e-6
RAAN
267.3202°
Arg perigee
265.4428°
Mean anomaly
94.6264°
Rev number
15,946

§ Raw data

STARLINK-308831 58252U 23171Y   26263.06404243 -.00000129  00000+0  48258-5 0  99922 58252  43.0043 267.3202 0001401 265.4428  94.6264 15.27577291159469

JSON: /api/v1/satellites/58252 · /tle

For live sub-satellite position, see the globe view (requires WebGL).

§ Visibility from observer

Set your observer location to see the next 7 days of passes ≥ 10°. The values pass through the URL so the page stays shareable.

No JS? Fill the form by hand. The geolocation button needs JavaScript.